| time (UTC) | temp C | wind direction | speed KPH | gust KPH | rain 1hr cm | rain 24hr cm | rain mn cm | humidity % | barometer mb |
| 20260905173104 | 25 | 71 | 0.0 | 6.4 | 0.00 | 0.00 | 0.00 | 63 | 1011.0 |
| 20260905171558 | 25 | 293 | 1.6 | 9.7 | 0.00 | 0.00 | 0.00 | 64 | 1011.3 |
| 20260905170059 | 25 | 340 | 0.0 | 11.3 | 0.00 | 0.00 | 0.00 | 69 | 1011.2 |
| 20260905164539 | 25 | 140 | 3.2 | 9.7 | 0.00 | 0.00 | 0.00 | 66 | 1011.2 |
| 20260905163039 | 24 | 145 | 1.6 | 9.7 | 0.00 | 0.00 | 0.00 | 68 | 1011.3 |
| 20260905161519 | 25 | 89 | 3.2 | 9.7 | 0.00 | 0.00 | 0.00 | 65 | 1011.3 |
| 20260905160019 | 25 | 195 | 0.0 | 11.3 | 0.00 | 0.00 | 0.00 | 66 | 1011.2 |
| 20260905154618 | 25 | 65 | 1.6 | 11.3 | 0.00 | 0.00 | 0.00 | 66 | 1011.4 |
| 20260905153056 | 24 | 209 | 1.6 | 11.3 | 0.00 | 0.00 | 0.00 | 68 | 1011.4 |
| 20260905151557 | 24 | 72 | 1.6 | 12.9 | 0.00 | 0.00 | 0.00 | 68 | 1011.3 |
| 20260905150037 | 23 | 231 | 3.2 | 11.3 | 0.00 | 0.00 | 0.00 | 66 | 1011.4 |
| 20260905144537 | 23 | 243 | 1.6 | 9.7 | 0.00 | 0.00 | 0.00 | 70 | 1011.3 |
| 20260905143124 | 23 | 129 | 0.0 | 6.4 | 0.00 | 0.00 | 0.00 | 71 | 1011.2 |
| 20260905141527 | 23 | 224 | 0.0 | 9.7 | 0.00 | 0.00 | 0.00 | 73 | 1011.2 |
| 20260905140018 | 22 | 236 | 1.6 | 9.7 | 0.00 | 0.00 | 0.00 | 74 | 1011.3 |
| 20260905134515 | 22 | 245 | 1.6 | 8.0 | 0.00 | 0.00 | 0.00 | 76 | 1011.4 |
| 20260905133011 | 21 | 62 | 0.0 | 6.4 | 0.00 | 0.00 | 0.00 | 80 | 1011.4 |
| 20260905131515 | 20 | 49 | 0.0 | 4.8 | 0.00 | 0.00 | 0.00 | 81 | 1011.5 |
| 20260905130010 | 21 | 140 | 0.0 | 8.0 | 0.00 | 0.00 | 0.00 | 81 | 1011.6 |
| 20260905124511 | 20 | 327 | 0.0 | 4.8 | 0.00 | 0.00 | 0.00 | 82 | 1011.7 |
| 20260905123048 | 20 | 307 | 0.0 | 3.2 | 0.00 | 0.00 | 0.00 | 82 | 1011.9 |
| 20260905121544 | 19 | 281 | 0.0 | 3.2 | 0.00 | 0.00 | 0.00 | 86 | 1011.8 |
| 20260905120025 | 18 | 167 | 0.0 | 3.2 | 0.00 | 0.00 | 0.00 | 92 | 1011.8 |
| 20260905114520 | 16 | 319 | 0.0 | 1.6 | 0.00 | 0.00 | 0.00 | 97 | 1011.5 |
| 20260905113059 | 15 | 294 | 0.0 | 1.6 | 0.00 | 0.00 | 0.00 | 97 | 1011.4 |
| 20260905111558 | 14 | 307 | 0.0 | 0.0 | 0.00 | 0.00 | 0.00 | 97 | 1011.2 |
| 20260905110050 | 14 | 307 | 0.0 | 0.0 | 0.00 | 0.00 | 0.00 | 96 | 1011.2 |
| 20260905104540 | 13 | 307 | 0.0 | 0.0 | 0.00 | 0.00 | 0.00 | 96 | 1011.1 |
| 20260905103023 | 14 | 307 | 0.0 | 0.0 | 0.00 | 0.00 | 0.00 | 96 | 1011.0 |
| 20260905101526 | 13 | 307 | 0.0 | 0.0 | 0.00 | 0.00 | 0.00 | 96 | 1010.8 |
| 20260905100004 | 14 | 307 | 0.0 | 0.0 | 0.00 | 0.03 | 0.00 | 96 | 1010.8 |
| 20260905094605 | 13 | 307 | 0.0 | 0.0 | 0.00 | 0.03 | 0.00 | 96 | 1010.7 |
| 20260905093052 | 14 | 307 | 0.0 | 0.0 | 0.00 | 0.03 | 0.00 | 96 | 1010.6 |
| 20260905091602 | 14 | 307 | 0.0 | 0.0 | 0.00 | 0.03 | 0.00 | 96 | 1010.5 |
| 20260905090051 | 14 | 307 | 0.0 | 0.0 | 0.00 | 0.76 | 0.00 | 96 | 1010.5 |
| 20260905084549 | 14 | 307 | 0.0 | 0.0 | 0.00 | 0.76 | 0.00 | 96 | 1010.6 |
| 20260905083049 | 14 | 307 | 0.0 | 0.0 | 0.00 | 0.76 | 0.00 | 96 | 1010.7 |
| 20260905081548 | 14 | 307 | 0.0 | 0.0 | 0.00 | 0.76 | 0.00 | 96 | 1010.6 |
| 20260905080047 | 14 | 307 | 0.0 | 0.0 | 0.00 | 0.76 | 0.00 | 96 | 1010.5 |
| 20260905074547 | 14 | 308 | 0.0 | 4.8 | 0.00 | 0.76 | 0.00 | 96 | 1010.5 |
| 20260905073045 | 14 | 292 | 0.0 | 0.0 | 0.00 | 0.76 | 0.00 | 95 | 1010.5 |
| 20260905071543 | 14 | 292 | 0.0 | 0.0 | 0.00 | 0.76 | 0.00 | 95 | 1010.5 |
| 20260905070051 | 15 | 292 | 0.0 | 0.0 | 0.00 | 0.76 | 0.00 | 95 | 1010.6 |
| 20260905064546 | 15 | 292 | 0.0 | 0.0 | 0.00 | 0.76 | 0.00 | 94 | 1010.7 |
| 20260905063050 | 15 | 292 | 0.0 | 0.0 | 0.00 | 0.76 | 0.00 | 95 | 1010.9 |
| 20260905061542 | 15 | 292 | 0.0 | 0.0 | 0.00 | 0.76 | 0.00 | 95 | 1011.1 |
| 20260905060013 | 15 | 288 | 0.0 | 0.0 | 0.00 | 0.76 | 0.00 | 94 | 1011.3 |
| 20260905054511 | 15 | 288 | 0.0 | 0.0 | 0.00 | 0.76 | 0.00 | 95 | 1011.4 |
| 20260905053052 | 15 | 289 | 0.0 | 0.0 | 0.00 | 0.76 | 0.00 | 94 | 1011.3 |
| 20260905051550 | 15 | 289 | 0.0 | 0.0 | 0.00 | 0.76 | 0.00 | 94 | 1011.7 |
| 20260905050031 | 16 | 288 | 0.0 | 0.0 | 0.00 | 0.76 | 0.00 | 94 | 1011.7 |
| 20260905044531 | 16 | 288 | 0.0 | 0.0 | 0.00 | 0.76 | 0.00 | 94 | 1011.8 |
| 20260905043012 | 16 | 288 | 0.0 | 1.6 | 0.00 | 0.76 | 0.00 | 94 | 1011.8 |
| 20260905041512 | 16 | 288 | 0.0 | 0.0 | 0.00 | 0.76 | 0.00 | 94 | 1011.8 |
| 20260905040056 | 16 | 288 | 0.0 | 0.0 | 0.00 | 0.76 | 0.76 | 94 | 1011.8 |
| 20260905034551 | 16 | 288 | 0.0 | 0.0 | 0.00 | 0.76 | 0.76 | 94 | 1011.6 |
| 20260905033032 | 16 | 288 | 0.0 | 0.0 | 0.00 | 0.76 | 0.76 | 93 | 1011.6 |
| 20260905031531 | 16 | 288 | 0.0 | 0.0 | 0.00 | 0.76 | 0.76 | 93 | 1011.6 |
| 20260905030012 | 16 | 288 | 0.0 | 0.0 | 0.00 | 0.76 | 0.76 | 92 | 1011.5 |
| 20260905024514 | 17 | 288 | 0.0 | 0.0 | 0.00 | 0.76 | 0.76 | 93 | 1011.4 |
| 20260905023053 | 17 | 288 | 0.0 | 0.0 | 0.00 | 0.76 | 0.76 | 93 | 1011.5 |
| 20260905021553 | 17 | 288 | 0.0 | 0.0 | 0.00 | 0.76 | 0.76 | 93 | 1011.5 |
| 20260905020039 | 17 | 288 | 0.0 | 0.0 | 0.00 | 0.76 | 0.76 | 92 | 1011.7 |
| 20260905014537 | 17 | 288 | 0.0 | 0.0 | 0.00 | 0.76 | 0.76 | 91 | 1011.5 |
| 20260905013039 | 17 | 288 | 0.0 | 0.0 | 0.00 | 0.76 | 0.76 | 92 | 1011.5 |
| 20260905011535 | 17 | 288 | 0.0 | 0.0 | 0.00 | 0.76 | 0.76 | 90 | 1011.5 |
| 20260905010042 | 18 | 288 | 0.0 | 0.0 | 0.00 | 0.76 | 0.76 | 89 | 1011.7 |
| 20260905004532 | 18 | 288 | 0.0 | 0.0 | 0.00 | 0.76 | 0.76 | 88 | 1011.8 |
| 20260905003042 | 18 | 288 | 0.0 | 0.0 | 0.00 | 0.76 | 0.76 | 88 | 1011.7 |
| 20260905001531 | 18 | 288 | 0.0 | 0.0 | 0.00 | 0.76 | 0.76 | 86 | 1011.6 |
| 20260905000016 | 19 | 288 | 0.0 | 0.0 | 0.00 | 0.76 | 0.76 | 84 | 1011.5 |
| 20260904234513 | 20 | 288 | 0.0 | 0.0 | 0.00 | 0.76 | 0.76 | 83 | 1011.2 |
| 20260904233015 | 20 | 288 | 0.0 | 0.0 | 0.00 | 0.76 | 0.76 | 81 | 1011.2 |
| 20260904231513 | 21 | 288 | 0.0 | 0.0 | 0.00 | 0.76 | 0.76 | 79 | 1011.2 |
| 20260904230015 | 22 | 288 | 0.0 | 0.0 | 0.00 | 0.76 | 0.76 | 75 | 1011.1 |
| 20260904224515 | 23 | 288 | 0.0 | 1.6 | 0.00 | 0.76 | 0.76 | 71 | 1011.2 |
| 20260904223008 | 24 | 142 | 0.0 | 3.2 | 0.00 | 0.76 | 0.76 | 68 | 1011.2 |
| 20260904221508 | 25 | 321 | 0.0 | 3.2 | 0.00 | 0.76 | 0.76 | 66 | 1011.1 |
| 20260904220050 | 26 | 307 | 0.0 | 3.2 | 0.00 | 0.76 | 0.76 | 63 | 1011.1 |
| 20260904214550 | 27 | 297 | 0.0 | 4.8 | 0.00 | 0.76 | 0.76 | 59 | 1011.0 |
| 20260904213032 | 27 | 297 | 0.0 | 4.8 | 0.00 | 0.76 | 0.76 | 56 | 1011.0 |
| 20260904211631 | 28 | 117 | 0.0 | 4.8 | 0.00 | 0.76 | 0.76 | 59 | 1011.0 |
| 20260904210020 | 28 | 223 | 0.0 | 8.0 | 0.00 | 0.76 | 0.76 | 57 | 1011.1 |
| 20260904204521 | 27 | 255 | 0.0 | 9.7 | 0.00 | 0.76 | 0.76 | 56 | 1011.1 |
| 20260904203019 | 27 | 212 | 1.6 | 11.3 | 0.00 | 0.76 | 0.76 | 56 | 1011.1 |
| 20260904201517 | 27 | 281 | 0.0 | 19.3 | 0.00 | 0.76 | 0.76 | 60 | 1011.3 |
| 20260904200017 | 28 | 64 | 1.6 | 12.9 | 0.00 | 0.76 | 0.76 | 57 | 1011.2 |
| 20260904194517 | 28 | 264 | 1.6 | 12.9 | 0.00 | 0.76 | 0.76 | 54 | 1011.2 |
| 20260904193032 | 27 | 39 | 0.0 | 9.7 | 0.00 | 0.76 | 0.76 | 60 | 1011.2 |
| 20260904191613 | 27 | 293 | 1.6 | 11.3 | 0.00 | 0.76 | 0.76 | 61 | 1011.3 |
| 20260904190057 | 26 | 231 | 3.2 | 12.9 | 0.00 | 0.76 | 0.76 | 59 | 1011.5 |
| 20260904184554 | 27 | 229 | 4.8 | 14.5 | 0.00 | 0.76 | 0.76 | 61 | 1011.6 |
| 20260904183036 | 27 | 248 | 1.6 | 12.9 | 0.00 | 0.76 | 0.76 | 59 | 1011.5 |
| 20260904181535 | 27 | 321 | 3.2 | 12.9 | 0.00 | 0.76 | 0.76 | 61 | 1011.4 |
| 20260904180018 | 27 | 216 | 1.6 | 12.9 | 0.00 | 0.76 | 0.76 | 60 | 1011.5 |
| 20260904174517 | 27 | 329 | 1.6 | 12.9 | 0.00 | 0.76 | 0.76 | 59 | 1011.2 |